Location: Unspecified
(34.4950°S, 58.5160°W)
Time: 09:58:54
(UTC+00:00)

ACS3 Solar Sail - Pass Details

Date: 15 February 2026
Orbit: 886 x 974 km, 97.2° (Epoch: 9 March)

Event Time Altitude Azimuth Distance (km) Brightness Sun altitude
Exits shadow 05:06:54 27° 175° (S) 1,711 3.4 -40.8°
Drops below altitude 10° 05:09:36 10° 184° (S) 2,679 4.7 -40.6°
Sets 05:12:06 0° 186° (S) 3,645 5.5 -40.5°
